Temp
63 63 63 63 63 63 63 63 63 63 64 63 63 63 63 63 63 77 87 94 95 80 81 101 100 103 104 100 103 104 87 84 89 88 91 100 96 103 106 102 103 103 100 98 98
63 63 63 63 63 63 63 63 63 63 63 63 63 63 63 63 76 86 92 83 80 80 95 98 97 101 97 99 101 96 88 89 97 96 94 98 98 99 99 99 99 99 100 99 98
62 62 62 62 63 63 62 62 62 62 63 63 63 63 63 66 81 96 82 81 79 83 101 105 104 101 95 100 99 97 89 96 97 98 99 97 97 102 98 94 98 97 95 96 96
61 62 62 62 62 62 62 62 62 62 62 63 63 63 63 76 83 97 82 80 79 96 98 101 100 94 92 93 101 91 97 98 99 100 98 96 100 97 98 97 104 104 101 98 95
61 61 61 62 62 62 62 62 62 62 62 62 63 63 69 82 93 96 81 82 95 95 96 98 95 96 90 96 98 93 96 98 100 100 98 100 96 96 96 103 105 105 103 97 97
61 61 61 61 61 61 61 61 61 62 63 63 63 63 79 84 104 97 99 96 100 98 99 101 99 101 96 95 94 98 96 97 98 98 98 96 96 97 98 103 102 101 101 100 98
60 60 60 60 61 61 61 60 61 65 63 63 63 74 88 95 109 107 103 101 105 103 100 105 105 99 99 94 101 97 90 95 97 98 96 99 91 91 99 102 99 99 99 100 99
60 60 60 60 60 60 60 60 61 66 64 64 64 80 91 108 111 106 107 105 108 108 106 108 107 100 97 100 97 92 93 86 94 96 97 95 83 94 101 98 95 96 97 97 98
59 59 59 59 60 59 59 59 64 66 66 65 74 85 92 96 101 107 109 103 105 106 106 107 102 96 97 90 87 91 84 87 88 96 95 93 85 94 100 97 92 93 94 96 94
59 59 59 59 59 59 58 59 66 66 71 83 90 87 98 95 104 106 109 107 101 101 98 96 95 89 91 88 78 83 85 87 85 92 93 91 89 93 97 96 92 92 92 92 92
58 58 58 59 59 58 68 88 85 83 90 93 95 96 99 106 108 103 107 103 102 97 87 93 87 84 90 92 91 88 86 84 90 94 88 88 89 91 94 96 92 91 90 89 90
58 58 58 58 58 58 67 94 92 95 85 99 101 101 104 105 95 101 107 94 93 86 93 90 84 93 94 92 89 88 85 85 90 93 89 88 87 92 93 93 94 92 91 91 91
57 58 58 57 58 71 98 94 103 101 86 95 100 98 99 102 96 97 101 97 92 89 91 86 90 94 90 89 86 87 85 84 83 89 92 88 84 88 92 93 94 94 93 92 90
57 57 57 54 70 96 97 102 105 101 79 88 92 99 102 101 94 106 105 99 94 89 92 90 94 90 88 87 88 82 89 87 85 82 75 89 72 82 86 87 91 92 93 91 91
56 57 56 56 80 92 98 105 103 98 66 91 94 108 103 95 98 98 107 100 89 91 90 86 88 87 84 87 89 83 90 86 85 81 80 81 77 82 86 83 86 90 91 91 91
56 56 55 75 82 96 105 104 98 77 68 87 95 92 92 95 96 99 98 102 100 92 92 90 96 92 90 92 90 91 86 86 86 82 71 79 79 75 81 84 87 89 90 90 91
55 54 57 79 89 103 103 96 77 71 92 86 88 92 91 89 92 92 89 87 83 77 79 87 88 93 92 85 91 88 82 70 69 70 68 82 79 78 86 90 89 87 89 91 92
54 54 71 87 99 101 97 83 67 84 87 94 92 92 87 91 91 91 88 84 90 88 82 79 76 87 92 86 81 82 80 69 59 64 69 80 72 78 89 91 91 91 91 92 92
53 89 91 97 100 99 87 74 77 85 91 88 90 84 86 91 90 89 87 86 91 91 78 78 78 91 90 91 87 81 75 85 74 75 70 76 80 85 89 88 89 89 89 89 90
66 82 91 105 103 95 81 68 83 92 91 89 79 87 81 86 85 85 85 91 90 92 92 84 74 87 89 89 89 83 87 72 75 61 60 71 73 71 78 82 85 85 86 87 88
71 83 99 105 101 87 75 81 88 95 91 85 83 83 86 85 87 85 85 91 93 90 91 88 82 80 84 80 79 80 77 79 80 75 64 62 69 83 80 82 82 85 87 87 87
77 78 100 102 81 84 80 86 73 89 92 87 88 86 84 86 84 83 83 87 94 93 83 88 82 74 78 89 90 86 80 79 68 66 72 69 70 87 86 86 86 86 84 82 83
71 82 100 96 75 80 87 88 88 86 88 86 85 88 89 84 78 84 86 89 90 87 81 85 77 68 71 81 87 80 81 80 79 76 66 63 67 89 86 87 87 82 82 82 82
71 76 87 90 88 82 80 83 82 89 87 88 86 89 85 81 85 80 83 87 89 87 73 80 77 71 66 71 78 74 78 80 77 68 69 71 73 80 82 82 83 83 83 82 81
74 78 82 76 83 83 83 82 80 80 86 88 82 83 81 76 79 79 83 86 86 73 83 81 69 74 76 79 79 77 77 78 74 75 68 72 73 78 79 79 81 82 81 80 79
72 73 77 76 79 77 71 76 77 82 83 80 78 83 84 77 80 77 83 82 81 82 80 82 69 73 70 76 76 73 77 77 77 77 76 76 74 84 81 81 78 78 78 77 78
76 77 74 69 77 76 76 78 79 83 85 85 84 81 80 80 84 86 90 89 86 81 78 76 72 68 62 73 72 66 74 76 77 79 78 70 77 79 76 76 76 77 78 78 75
MSLP
1014.60 1014.14 1013.62 1013.12 1012.61 1012.16 1011.79 1011.43 1011.12 1010.93 1010.78 1010.69 1010.51 1010.48 1010.39 1010.24 1009.84 1009.03 1006.61 1004.58 1004.38 1004.74 1005.12 1003.95 1003.66 1002.69 1002.16 1001.28 1000.08 999.51 998.74 997.24 996.86 997.17 997.15 996.86 997.02 996.74 996.91 996.69 997.26 998.30 999.37 1001.11 1003.17
1014.52 1014.02 1013.49 1012.96 1012.48 1011.97 1011.58 1011.22 1010.87 1010.62 1010.44 1010.41 1010.36 1010.41 1010.39 1010.25 1009.10 1006.76 1004.38 1004.17 1004.45 1004.81 1004.82 1003.53 1002.59 1001.99 1001.35 1000.11 999.28 998.75 997.62 997.14 997.31 997.60 997.57 997.55 997.46 997.36 997.04 997.13 997.62 998.60 1000.09 1001.86 1003.15
1014.45 1013.82 1013.25 1012.68 1012.22 1011.74 1011.30 1010.95 1010.64 1010.33 1010.14 1010.11 1010.17 1010.27 1010.33 1010.21 1007.91 1003.88 1004.13 1004.32 1004.45 1004.76 1004.11 1002.78 1002.12 1001.57 1000.78 999.48 998.78 998.24 997.75 997.57 997.77 997.87 998.06 997.77 997.56 997.24 997.28 997.44 998.11 998.83 1000.17 1001.93 1003.04
1014.45 1013.78 1013.16 1012.53 1011.94 1011.41 1010.95 1010.51 1010.24 1010.01 1009.82 1009.82 1009.96 1010.12 1010.25 1009.40 1005.41 1003.80 1004.19 1004.49 1004.68 1004.60 1004.28 1002.77 1002.04 1001.39 1000.41 999.06 998.30 998.35 998.02 997.85 997.83 998.01 998.03 997.79 997.79 997.64 997.88 998.40 998.49 998.69 999.62 1001.42 1002.73
1014.50 1013.83 1013.15 1012.45 1011.86 1011.25 1010.72 1010.15 1009.75 1009.57 1009.47 1009.52 1009.73 1009.95 1009.95 1007.41 1003.61 1003.51 1004.26 1004.62 1004.68 1004.70 1003.62 1002.32 1001.74 1000.93 1000.07 998.89 998.33 998.28 998.01 998.11 998.01 998.03 998.13 998.03 997.90 997.96 998.54 998.49 998.65 998.89 999.51 1001.01 1002.26
1014.52 1013.85 1013.12 1012.37 1011.74 1011.08 1010.50 1010.00 1009.59 1009.15 1009.13 1009.31 1009.54 1009.83 1008.51 1004.72 1002.70 1003.41 1003.68 1004.19 1003.74 1003.83 1002.84 1001.95 1001.15 1000.54 1000.00 999.37 998.77 998.32 998.41 998.32 998.14 998.14 998.26 997.81 998.18 998.21 998.82 998.65 998.84 999.32 999.59 1000.27 1001.55
1014.39 1013.71 1012.98 1012.25 1011.61 1010.92 1010.26 1009.78 1009.42 1009.03 1009.03 1009.24 1009.49 1009.04 1006.06 1002.62 1002.01 1002.60 1003.17 1003.12 1002.87 1002.54 1001.71 1001.48 1001.17 1000.70 999.83 999.15 998.57 998.55 998.39 997.69 997.75 997.72 997.82 997.95 998.01 998.60 998.77 998.73 999.34 999.65 1000.26 1000.36 1001.06
1014.26 1013.51 1012.78 1012.09 1011.45 1010.79 1010.15 1009.63 1009.28 1008.98 1009.09 1009.28 1009.43 1008.38 1003.79 1001.98 1001.80 1002.30 1002.18 1002.01 1001.96 1002.00 1001.53 1001.06 1001.11 1000.87 1000.09 999.43 998.73 998.15 997.47 996.83 997.41 997.71 997.92 998.21 998.11 998.71 998.58 999.18 1000.04 1000.54 1000.74 1001.28 1001.53
1014.19 1013.35 1012.59 1011.80 1011.13 1010.58 1010.03 1009.40 1009.04 1008.87 1008.98 1009.24 1008.88 1006.80 1002.51 1002.47 1001.87 1001.81 1001.63 1001.33 1001.57 1001.57 1001.53 1001.35 1001.36 1000.72 999.87 999.09 998.10 997.02 996.08 996.11 997.03 997.64 997.85 997.82 998.16 998.77 998.82 999.69 1000.58 1001.31 1001.49 1001.65 1002.51
1014.25 1013.27 1012.43 1011.58 1010.67 1010.33 1009.50 1009.11 1008.61 1008.53 1008.55 1007.95 1006.52 1005.02 1002.20 1001.31 1001.08 1001.26 1001.38 1001.24 1001.11 1001.00 1001.27 1001.41 1000.85 1000.13 999.20 998.35 997.20 996.59 995.97 996.13 996.87 997.42 997.81 997.70 997.74 998.63 999.16 999.56 1000.66 1001.66 1002.39 1002.86 1003.21
1014.33 1013.27 1012.30 1011.38 1010.23 1010.14 1009.07 1008.25 1008.30 1007.34 1005.83 1003.48 1002.39 1001.25 1000.55 1000.42 1000.99 1000.88 1001.03 1001.12 1000.82 1000.80 1000.42 1000.17 999.87 998.51 997.61 997.58 997.72 997.67 997.34 997.08 996.96 997.48 998.36 997.86 997.82 998.57 999.45 999.55 1000.49 1001.63 1002.67 1003.61 1004.11
1014.32 1013.32 1012.20 1011.13 1009.95 1009.12 1009.43 1006.22 1005.69 1005.06 1003.63 1001.81 1001.01 1000.32 1000.01 1000.26 1000.30 1000.37 1000.77 1000.87 1000.56 1000.09 999.61 999.26 998.68 997.90 998.13 998.43 998.40 998.04 997.69 997.21 997.10 997.71 998.46 998.02 997.85 998.25 999.20 999.92 1000.47 1001.37 1002.44 1003.29 1004.31
1014.37 1013.40 1012.27 1010.80 1009.41 1008.32 1006.13 1005.50 1004.85 1004.24 1002.88 1000.24 999.98 999.85 999.92 1000.14 999.48 999.59 1000.41 1000.25 999.70 999.32 998.76 998.47 998.12 998.50 998.64 998.37 998.37 997.91 997.58 997.63 997.89 997.96 997.99 997.85 997.82 997.79 999.02 1000.01 1000.71 1001.50 1002.40 1003.45 1004.50
1014.43 1013.43 1012.55 1011.10 1009.42 1006.62 1004.90 1004.69 1004.25 1004.11 1002.17 999.23 999.08 998.55 999.06 999.57 998.97 998.76 999.79 999.50 999.05 998.69 998.25 998.24 998.30 998.60 998.69 998.32 998.54 997.85 998.46 998.67 998.65 998.50 997.83 997.40 997.18 997.16 998.71 999.73 1000.47 1001.24 1002.13 1003.30 1004.30
1014.25 1013.48 1012.46 1012.68 1009.74 1005.93 1004.97 1004.45 1004.39 1003.75 1000.47 998.63 998.29 998.11 998.56 998.87 997.88 998.71 999.30 999.20 999.07 998.43 999.00 997.98 998.09 998.70 998.79 998.46 999.09 998.97 999.22 999.29 998.96 998.64 998.25 997.63 997.26 996.58 998.42 999.23 1000.07 1001.07 1002.33 1003.45 1004.34
1013.90 1013.28 1012.83 1010.50 1008.95 1005.80 1004.49 1004.29 1003.85 1002.63 998.68 997.50 997.68 998.07 998.18 998.41 998.08 998.43 999.05 999.40 998.96 998.73 998.73 998.42 998.57 998.90 998.87 999.06 999.58 999.77 999.67 999.05 998.46 998.10 997.54 996.74 996.86 997.68 997.65 998.64 999.76 1001.10 1002.37 1003.49 1004.16
1013.51 1012.33 1012.72 1010.25 1006.56 1004.97 1004.68 1003.85 1002.48 1000.04 997.56 996.88 997.01 997.43 997.63 997.77 997.80 998.34 998.90 999.14 999.07 998.84 998.31 998.10 998.24 998.77 999.46 999.48 999.30 999.69 999.30 998.69 997.68 997.33 997.12 997.00 997.04 997.53 998.18 998.94 1000.04 1001.26 1002.33 1003.30 1003.81
1012.82 1011.07 1008.91 1007.89 1006.07 1005.43 1004.61 1003.43 1001.23 998.18 996.56 996.56 996.67 996.79 997.01 996.93 997.24 997.71 998.16 998.34 998.57 998.44 997.97 997.39 997.09 998.20 999.11 999.65 999.79 999.86 1000.07 1000.03 999.09 998.27 998.27 998.09 997.60 997.68 998.22 999.28 1000.38 1001.48 1002.25 1003.02 1003.50
1012.15 1008.52 1007.07 1005.63 1005.44 1005.17 1004.26 1002.08 999.74 997.99 997.20 996.75 997.09 996.85 996.53 996.49 996.70 997.08 997.60 997.66 997.49 997.63 998.33 998.08 997.86 998.49 999.32 999.65 1000.37 1000.35 1000.41 1000.20 1000.00 999.81 999.01 998.12 997.92 998.42 998.81 999.60 1000.50 1001.47 1002.30 1002.95 1003.56
1012.57 1008.60 1005.25 1003.81 1004.55 1004.51 1003.64 1001.44 999.40 998.44 998.35 998.11 997.72 996.86 996.66 996.28 996.77 997.30 997.20 997.33 997.31 997.98 998.73 998.87 998.85 998.69 998.91 1000.18 1000.47 1000.68 1000.87 1000.81 1000.25 999.98 999.13 998.35 998.44 999.11 999.72 1000.19 1000.88 1001.77 1002.57 1003.32 1003.97
1011.96 1006.96 1003.61 1003.73 1004.20 1003.84 1002.35 1000.35 999.12 998.49 999.20 999.17 998.51 997.78 996.96 996.49 996.30 996.61 997.03 997.05 997.43 998.29 999.40 999.69 999.48 999.20 999.74 999.85 999.83 1000.19 1000.57 1000.72 1000.43 1000.48 1000.22 999.81 999.42 999.56 1000.31 1001.01 1001.63 1002.25 1002.75 1003.33 1004.09
1010.94 1006.03 1003.52 1003.74 1003.65 1002.51 1001.24 1000.20 999.69 999.16 999.49 999.70 999.23 998.61 997.96 997.50 997.29 997.15 997.42 997.36 997.85 998.63 999.62 1000.01 1000.06 999.68 999.57 999.22 999.56 999.96 1000.33 1000.99 1001.41 1001.07 1000.76 1000.59 999.87 1000.11 1000.70 1001.23 1001.85 1002.34 1003.27 1004.30 1005.09
1011.68 1006.48 1003.52 1003.58 1002.72 1001.52 1000.38 999.81 1000.02 1000.02 999.57 999.58 999.38 999.10 998.83 998.47 998.30 998.07 998.25 999.18 999.72 1000.08 1000.92 1001.20 1000.83 1000.73 1000.33 999.96 999.40 999.89 1000.71 1001.25 1001.41 1001.51 1001.60 1001.41 1000.71 1000.18 1000.83 1001.03 1001.79 1002.75 1003.79 1004.72 1005.47
1012.28 1006.25 1003.53 1003.19 1002.91 1001.94 1000.97 999.87 999.99 1000.39 1000.26 999.93 999.80 999.45 999.17 999.21 999.13 999.11 998.86 999.50 1000.50 1001.13 1002.30 1002.45 1002.08 1002.01 1001.39 1000.33 1000.82 1000.57 1000.68 1000.91 1001.28 1001.27 1001.13 1000.87 1000.48 1000.43 1000.76 1001.41 1002.11 1003.04 1003.85 1004.71 1005.53
1011.85 1006.81 1005.36 1003.43 1002.54 1002.10 1001.57 1001.10 1000.34 1000.02 1000.68 1000.62 1000.55 1000.34 1000.05 999.94 999.74 999.41 999.82 999.76 1000.79 1001.99 1002.61 1003.02 1002.94 1002.92 1002.35 1001.84 1001.40 1001.15 1000.98 1000.87 1000.88 1001.10 1001.14 1000.97 1000.82 1000.99 1001.57 1002.39 1003.05 1003.65 1004.38 1005.05 1005.66
1011.53 1009.27 1007.75 1005.98 1004.63 1003.81 1002.82 1002.30 1001.61 1000.81 1000.42 1000.41 1000.90 1000.74 1000.53 1000.52 1000.30 999.97 999.68 1000.04 1000.17 1001.55 1002.38 1003.13 1003.16 1003.33 1003.15 1002.91 1002.43 1001.61 1001.12 1000.96 1000.86 1000.92 1000.84 1000.93 1001.01 1001.45 1002.52 1003.32 1004.06 1004.67 1005.07 1005.53 1005.99
1012.59 1011.67 1009.84 1007.30 1005.39 1004.25 1003.34 1002.51 1002.00 1001.54 1001.15 1001.06 1001.08 1001.18 1001.16 1001.48 1001.44 1001.10 1000.26 1000.30 1000.63 1001.14 1001.95 1002.84 1003.40 1003.68 1003.44 1003.28 1002.69 1001.57 1000.88 1000.41 1000.36 1000.53 1000.55 1000.88 1001.40 1002.17 1003.24 1004.10 1004.68 1005.07 1005.41 1005.78 1006.50
Wind_Speed
19 18 18 18 18 16 15 14 13 12 10 10 9 8 9 10 13 7 11 3 8 11 2 8 12 11 11 13 18 11 13 12 17 11 12 12 9 11 6 11 11 16 10 23 24
19 19 19 19 18 17 15 14 13 12 11 9 8 7 7 8 9 16 7 8 9 9 9 12 9 10 9 15 6 10 11 14 12 9 10 10 9 8 6 6 12 18 27 24 24
20 21 21 20 20 18 16 14 13 11 10 10 8 7 6 7 9 9 8 8 10 11 17 13 13 8 14 13 10 7 11 12 12 10 8 11 9 6 8 8 13 6 23 21 22
23 23 22 22 21 20 18 16 14 11 10 9 8 6 4 8 3 6 9 8 8 12 13 16 13 12 14 14 8 6 9 11 8 8 8 8 8 3 12 8 3 9 21 19 20
24 24 23 23 22 21 19 18 15 11 7 7 7 6 6 7 1 9 9 7 9 10 14 12 11 11 14 13 9 8 9 7 8 6 6 4 6 7 10 5 8 7 5 19 18
25 24 24 23 23 22 19 17 14 12 4 5 7 7 6 9 12 12 12 12 11 14 14 13 11 10 12 15 9 11 10 9 5 6 1 5 8 2 6 5 9 10 4 17 17
23 23 23 23 23 22 20 17 14 8 2 5 8 7 11 3 9 11 12 12 14 17 12 10 11 13 6 12 6 7 11 13 7 3 4 8 10 9 3 7 12 9 7 6 15
24 24 24 24 22 22 20 17 13 5 3 6 8 8 5 4 6 10 14 12 11 9 11 11 8 14 14 13 13 13 15 12 12 3 7 8 11 8 4 13 10 9 7 8 5
25 25 25 25 23 21 19 16 10 3 3 8 7 8 4 4 10 11 9 8 8 10 8 7 8 13 16 11 15 14 12 13 11 5 4 7 13 9 10 11 11 10 7 10 7
26 26 26 26 25 20 21 9 4 6 7 11 11 10 9 10 11 12 9 10 6 7 8 8 9 13 13 12 10 11 3 5 1 12 5 5 4 12 4 13 12 12 10 11 10
26 27 27 27 28 19 14 4 7 7 11 10 15 9 10 10 6 7 10 10 8 7 12 13 11 14 9 7 11 10 7 8 3 4 3 13 5 7 3 6 13 12 13 11 11
27 28 29 29 28 25 7 7 7 7 11 20 11 7 1 11 9 10 11 10 10 12 14 7 13 2 9 5 7 9 7 12 3 5 4 11 8 10 8 5 8 13 10 12 12
27 27 29 31 32 11 6 6 7 7 8 12 11 14 12 9 11 13 14 14 10 13 9 14 6 7 2 8 8 12 11 10 9 7 9 15 12 12 14 8 10 8 14 12 9
27 27 27 31 6 12 4 8 7 3 7 14 10 10 13 11 10 16 14 14 7 11 10 9 9 3 6 10 4 8 11 6 9 11 12 11 10 15 17 13 11 11 12 12 9
28 27 28 8 12 8 9 9 8 5 7 12 12 12 12 12 13 11 14 10 13 9 5 3 4 5 6 5 6 13 10 11 13 13 15 16 10 9 18 16 14 13 11 10 9
29 26 24 2 7 14 10 11 7 7 6 10 11 11 14 16 9 13 10 10 9 10 8 13 6 5 7 7 4 10 13 15 16 15 13 18 13 11 15 12 15 15 11 7 4
31 31 16 9 9 13 10 9 7 10 9 11 12 13 15 15 13 10 12 13 12 9 13 15 12 10 1 9 12 10 12 9 11 11 6 8 4 11 13 13 14 13 8 6 3
34 32 9 9 10 13 8 9 9 13 9 6 2 15 15 16 13 13 13 13 15 17 12 9 7 14 10 5 9 8 6 6 12 13 10 9 6 7 16 15 12 7 4 1 5
34 8 8 10 13 5 8 9 12 12 9 3 8 11 12 14 7 13 12 14 14 18 10 11 6 12 4 2 2 3 7 13 8 13 13 11 5 9 13 11 12 7 5 5 7
10 10 13 10 6 7 8 14 17 15 5 6 11 7 13 15 11 13 11 12 12 4 4 11 9 6 10 4 8 9 10 8 9 12 9 7 10 9 10 7 8 3 2 5 7
6 7 9 7 6 7 10 14 11 5 3 7 13 15 14 15 10 13 16 11 7 4 3 12 12 10 13 6 12 9 11 7 9 6 9 8 4 11 9 9 6 4 8 5 5
7 7 8 4 8 8 12 19 7 7 5 8 10 15 16 8 16 5 14 9 4 7 6 4 9 9 16 14 3 6 11 13 10 12 8 10 9 12 7 3 5 6 12 14 11
8 11 7 6 9 12 15 12 6 9 11 9 10 10 14 12 8 8 12 11 6 2 4 6 5 9 16 16 13 8 3 11 9 8 11 11 10 3 10 2 4 10 7 5 6
7 6 8 7 11 16 14 11 9 10 12 10 10 11 9 10 11 8 11 9 7 9 7 2 10 10 12 18 12 10 10 10 11 8 11 13 15 13 14 12 9 8 8 5 5
7 5 9 5 0 10 9 12 9 9 9 12 8 14 9 12 11 12 12 8 9 10 3 5 11 14 15 16 17 17 18 17 17 16 17 17 19 14 9 10 10 10 8 7 9
7 7 12 13 12 9 6 9 13 15 12 9 11 16 12 13 12 13 11 12 11 15 9 8 13 11 13 15 17 21 20 19 19 19 21 19 17 6 10 12 12 11 11 11 10
10 12 8 9 11 9 11 14 13 9 12 6 10 12 12 12 15 15 11 7 7 5 9 7 8 9 13 14 18 17 18 17 17 15 15 14 8 11 10 8 8 10 11 8 9
Wind_Direction
345 341 338 336 337 332 329 322 315 306 299 291 289 296 296 305 297 236 241 249 179 170 188 242 233 252 249 265 265 273 273 287 35 47 9 18 359 9 357 5 79 69 86 133 144
344 342 340 338 337 334 329 321 312 301 290 281 280 283 290 311 267 258 217 123 132 158 218 229 230 239 252 256 249 256 290 23 31 3 4 355 353 317 338 32 60 96 101 125 146
345 343 341 339 338 336 329 322 312 298 283 275 268 266 278 284 270 203 136 145 158 185 237 239 262 265 272 268 268 265 317 4 344 36 333 335 297 16 13 41 45 34 122 140 153
346 344 341 339 337 336 332 327 320 303 280 263 257 254 274 245 345 94 155 166 161 204 235 256 252 263 258 273 253 303 293 337 334 347 306 311 353 298 55 43 1 58 136 148 161
345 343 340 338 336 334 332 330 324 309 278 247 230 220 224 224 286 127 143 152 178 202 228 239 243 250 263 296 319 262 273 341 312 326 356 277 50 67 57 339 54 75 145 148 169
343 341 338 336 335 333 331 330 324 310 266 209 193 176 244 257 102 133 154 162 184 200 230 235 251 275 296 276 306 321 326 299 281 114 169 281 124 135 63 341 55 80 86 155 171
339 336 334 333 333 331 330 328 325 327 196 178 179 232 258 304 139 137 157 177 183 217 217 232 269 282 277 289 311 309 267 234 206 111 150 285 150 85 283 84 52 41 61 57 161
336 334 333 330 331 330 328 323 320 338 165 174 180 247 286 133 154 172 196 185 203 234 278 298 239 272 279 290 287 245 228 211 142 231 120 251 104 77 53 70 66 29 105 95 22
335 333 332 329 329 329 321 315 300 269 176 170 211 239 224 138 203 196 217 195 192 229 232 301 278 259 267 242 253 223 247 146 143 131 327 266 116 92 82 89 78 65 38 88 107
335 332 330 328 325 329 315 278 295 279 213 210 260 257 178 200 192 185 207 273 210 195 204 226 235 240 227 245 279 341 343 114 246 134 187 250 118 107 353 110 101 89 71 68 57
335 332 329 327 322 331 325 216 203 194 235 257 142 256 161 105 141 207 191 223 221 219 236 187 227 233 218 24 6 327 317 313 303 91 309 282 67 108 97 98 114 116 115 92 78
333 331 328 326 321 318 268 300 32 329 291 227 253 261 167 163 187 204 181 209 208 234 213 218 231 305 19 350 313 297 280 260 149 126 276 283 207 199 158 110 104 129 106 100 101
332 330 329 325 318 290 278 20 314 305 260 225 204 214 193 212 231 172 190 219 232 237 224 265 78 52 314 251 246 242 256 17 340 331 254 248 257 217 139 150 131 118 120 108 90
330 329 330 329 297 341 298 357 323 24 268 156 193 212 172 216 234 167 192 222 232 265 219 260 80 341 274 279 323 339 20 332 293 282 281 327 263 157 151 165 170 131 108 102 98
328 328 326 315 309 307 353 317 336 246 275 143 138 128 177 213 128 172 182 229 267 235 248 248 121 211 251 305 28 310 355 301 286 278 272 265 248 162 156 170 159 124 97 88 92
325 324 331 196 225 256 322 318 259 236 249 157 142 190 179 212 187 154 197 237 278 296 237 281 44 336 299 8 286 309 295 276 255 246 249 240 245 135 171 178 142 119 110 97 99
322 314 309 298 263 336 311 280 234 246 132 157 175 183 203 194 217 177 195 205 237 211 232 226 216 208 347 273 231 242 275 307 305 213 255 64 215 101 120 100 94 106 115 93 157
321 308 251 235 281 276 289 254 253 265 223 66 254 182 203 218 204 188 210 223 214 261 283 261 257 169 152 254 345 320 341 297 304 311 357 128 226 120 115 117 117 129 120 194 59
313 284 237 221 222 276 265 239 236 252 343 87 216 272 222 246 209 208 227 251 241 213 235 287 6 88 127 105 197 212 265 328 313 285 270 270 116 158 135 140 144 168 81 16 5
314 288 261 183 220 241 253 254 284 312 353 343 281 223 250 225 188 233 251 220 243 135 352 289 298 221 171 160 250 245 308 294 265 257 285 318 344 103 129 166 111 104 22 333 18
267 258 116 169 214 235 242 249 256 195 337 277 272 270 282 274 268 204 234 248 196 127 210 279 277 268 143 197 252 175 238 217 291 308 309 296 60 89 71 54 21 325 295 21 343
296 257 122 224 231 232 241 240 297 288 189 255 273 291 293 269 269 262 270 28 83 178 279 253 291 256 265 292 228 278 295 305 281 282 273 313 294 101 105 76 347 333 48 43 23
295 299 281 224 247 233 244 236 259 265 248 260 237 253 270 280 283 274 271 82 85 212 13 342 253 257 248 248 218 203 286 281 251 276 265 274 281 275 167 188 20 87 61 36 358
276 275 199 211 256 285 295 298 222 205 287 313 288 284 256 261 262 249 268 137 129 69 41 319 277 295 288 309 315 298 257 220 259 270 280 277 287 294 339 345 24 12 345 40 331
244 282 21 286 279 280 264 280 286 221 190 264 241 259 247 260 247 242 239 255 146 147 204 264 261 273 276 285 296 295 290 287 279 279 274 283 289 308 3 27 8 8 21 353 335
296 344 350 305 296 292 276 265 268 275 278 192 234 271 229 257 253 266 254 240 233 153 189 240 255 259 279 288 282 277 276 274 272 271 273 277 280 344 49 26 6 355 343 336 331
14 331 288 293 287 249 261 258 249 267 273 309 301 310 257 19 351 333 313 302 332 273 207 199 266 277 270 292 297 283 270 267 273 275 273 271 313 46 34 5 353 333 317 301 19